Location: Kumla
(59.1265°N, 15.1401°E)
Time: 15:43:26
(UTC+01:00)

Vanguard 1 Rocket - Visible Passes

Search period start: 03 December 2023 00:00
Search period end: 13 December 2023 00:00
Orbit: 656 x 4218 km, 34.3° (Epoch: 02 December)

Date Brightness Start Highest point End Pass type
(mag) Time Alt. Az. Time Alt. Az. Time Alt. Az.
03 Dec 11.6 03:39:39 10° SSE 03:43:21 11° SSE 03:46:41 10° SE visible
03 Dec 11.1 05:58:37 10° SSW 06:08:33 18° S 06:15:37 10° SE visible
04 Dec 11.2 04:46:13 10° SSW 04:56:39 17° SSE 05:04:24 10° SE visible
04 Dec 10.9 07:11:53 10° SW 07:21:35 20° S 07:28:19 10° SSE visible
05 Dec 11.4 03:35:13 10° S 03:44:34 15° SSE 03:52:02 10° SE visible
05 Dec 11.0 05:58:09 10° SW 06:09:58 21° S 06:18:03 10° SE visible
06 Dec 11.6 02:27:36 10° SSE 02:32:25 11° SE 02:36:46 10° SE visible
06 Dec 11.1 04:45:03 10° SSW 04:57:59 21° SSE 05:07:07 10° SE visible
06 Dec 10.9 07:12:09 10° SW 07:23:00 21° SSW 07:30:20 10° SSE visible
07 Dec 11.3 03:33:01 10° SSW 03:45:44 19° SSE 03:55:19 10° ESE visible
07 Dec 10.9 05:57:59 10° SW 06:11:19 24° S 06:20:13 10° SE visible
08 Dec 11.5 02:22:48 10° S 02:33:23 15° SSE 02:42:07 10° ESE visible
08 Dec 11.0 04:44:22 10° SW 04:59:13 24° S 05:09:26 10° SE visible
08 Dec 10.9 07:12:35 10° WSW 07:24:17 22° SSW 07:32:10 10° SSE visible
09 Dec 11.7 01:17:40 10° SE 01:21:08 11° SE 01:24:26 10° SE visible
09 Dec 11.2 03:31:38 10° SSW 03:46:49 22° SSE 03:57:56 10° ESE visible
09 Dec 10.9 05:58:01 10° SW 06:12:35 26° S 06:22:10 10° SE visible
10 Dec 11.4 02:24:39 14° S 02:34:18 19° SSE 02:45:26 10° ESE visible
10 Dec 11.0 04:44:00 10° SW 05:00:23 27° S 05:11:31 10° SE visible
10 Dec 10.9 07:13:08 10° WSW 07:25:29 22° SSW 07:33:49 10° SSE visible
11 Dec 11.6 01:17:39 14° SSE 01:21:50 15° SE 01:31:02 10° ESE visible
11 Dec 11.1 03:34:57 15° SSW 03:47:51 26° SSE 04:00:11 10° ESE visible
11 Dec 10.9 05:58:14 10° WSW 06:13:44 27° SSW 06:23:58 10° SE visible
12 Dec 11.3 02:27:48 20° S 02:35:08 23° SSE 02:48:00 10° ESE visible
12 Dec 10.9 04:45:05 12° SW 05:01:28 29° S 05:13:24 10° SE visible
12 Dec 10.9 07:13:48 10° WSW 07:26:34 22° SSW 07:35:16 10° SSE visible
